STARLINK-1903, 46764

Orbit data source: Space-Track

STARLINK-1903, 46764 is a payload satellite owned by SpaceX/Seattle (US) in LEO that was launched on Sat, 24 Oct 2020 UTC via an FALCON 9 launch vehicle from the Air Force Eastern Test Range (AFETR). Payload-class satellites include a variety of spacecraft equipped with specific instruments for various scientific and technological missions. These include communications satellites like Starlink; space stations such as the ISS; scientific satellites like the Hubble; Earth observation satellites from companies like Planet Labs, Umbra, and HawkEye 360; GPS; miniature CubeSats for education and research; and military/defense satellites.

Loading next visibility...
Identifier
46764, 2020-074AB
Orbit
LEO
Country
Flag of USUS
Related business
Manufacturer
SpaceX/Seattle
Mission
Partially operational Commercial Communications
Bus & Motor
STARLINK, Unknown motor
Mass
260 kg wet, ~248 kg dry
Launch date (UTC)
2020-10-24 (5 years ago)
Launch vehicle
FALCON 9
Launch site
Air Force Eastern Test Range (AFETR)
Object type
Payload
Rocket body
Debris
Shape & HBR
Box + 1 Pan, 4.4 m
Radar Cross Section
13.562 m², Large (>1 m²)

Expand to show TLE details & history
Last TLE update: 19 hours ago

TLE from 19 hours ago
0 STARLINK-1903
1 46764U 20074AB  25258.45235460  .00198041  00000-0  17453-2 0  9996
2 46764  53.0239 324.2876 0005924  22.7278 337.3999 15.67582568271164
Epoch: 2025-09-15T10:51Z
TLE epoch observation values (Epoch: 2025-09-15T10:51:23.437Z)
Latitude
0.00003°
Longitude
166.78316°
Altitude
363.033 km
Speed
7.695 km/s
True Right ascension
21h 37m 09s
True Declination
0° 00' 00"
Sunlit
Object was in full shadow at epoch
Visualization orbit readout
Latitude
Unknown
Longitude
Unknown
Altitude
Unknown
Speed
Unknown
Apparent Right ascension
Unknown
Apparent Declination
Unknown
Sunlit
N/A
Visualization observer readout
Local Sidereal Time
22:22:18
Azimuth
Unknown
Elevation
Unknown
Doppler factor
Unknown
Orbital elements
Apogee altitude
370.1 km
Perigee altitude
362.109 km
Semi-major axis
6,744.241 km
Eccentricity
0.00059
Inclination
53.0239°
RAAN
324.2876°
Arg. of periapsis
22.7278°
True anomaly
337.37379°
Mean anomaly
337.3999°
Eccentric anomaly
337.38685°
Mean motion
3.91871 °/min
Orbital period
91.87 mins
BSTAR
0.0017453
Loading maneuver chart data...
Computing Atmospheric mass density...

Documentation

Showing up to 5 results
|